Location: Navalespino
(40.5894°N, 4.2660°W)
Time: 23:00:07
(UTC+00:00)

ATLAS 3B R/B - Pass Details

Date: 18 April 2024
Orbit: 943 x 1251 km, 63.8° (Epoch: 23 May)

Event Time Altitude Azimuth Distance (km) Brightness Sun altitude
Rises 20:12:38 0° 219° (SW) 3,816 5.7 -13.6°
Reaches altitude 10° 20:15:12 10° 221° (SW) 2,907 5.1 -14.1°
Maximum altitude 20:22:08 73° 306° (NW) 1,189 3.1 -15.2°
Drops below altitude 10° 20:29:40 10° 31° (NNE) 3,141 5.2 -16.4°
Sets 20:32:32 0° 34° (NNE) 4,141 5.8 -16.9°
